owner,sensor,date,latitude,longitude,vertical_datum,direction_of_sea_water_velocity,sea_water_speed,upward_sea_water_velocity,qcFlag 
TABS,ioos:station:TABS:A:1,1995-08-12T00:00:00Z,29.5325,-93.8116,2.0,250.7019404,24.78241715,-99999.0,'11111222,11111222,99999999' 
TABS,ioos:station:TABS:A:1,1995-08-12T00:30:00Z,29.5325,-93.8116,2.0,242.6832148,20.46178145,-99999.0,'11111222,11111222,99999999' 
TABS,ioos:station:TABS:A:1,1995-08-12T01:00:00Z,29.5325,-93.8116,2.0,233.1240706,20.1140001,-99999.0,'11111222,11111222,99999999' 
TABS,ioos:station:TABS:A:1,1995-08-12T01:30:00Z,29.5325,-93.8116,2.0,235.4011731,15.74437042,-99999.0,'11111222,11111222,99999999' 
TABS,ioos:station:TABS:A:1,1995-08-12T02:00:00Z,29.5325,-93.8116,2.0,226.8586273,16.13052386,-99999.0,'11111222,11111222,99999999' 
TABS,ioos:station:TABS:A:1,1995-08-12T02:30:00Z,29.5325,-93.8116,2.0,237.0471351,16.15975557,-99999.0,'11111222,11111222,99999999' 
TABS,ioos:station:TABS:A:1,1995-08-12T03:00:00Z,29.5325,-93.8116,2.0,240.6059109,12.14322857,-99999.0,'11111222,11111222,99999999' 
TABS,ioos:station:TABS:A:1,1995-08-12T03:30:00Z,29.5325,-93.8116,2.0,238.5236655,11.7018161,-99999.0,'11111222,11111222,99999999' 
TABS,ioos:station:TABS:A:1,1995-08-12T04:00:00Z,29.5325,-93.8116,2.0,242.4894158,11.92880966,-99999.0,'11111222,11111222,99999999' 
TABS,ioos:station:TABS:A:1,1995-08-12T04:30:00Z,29.5325,-93.8116,2.0,274.7972087,7.175130661,-99999.0,'11133222,11111222,99999999' 
TABS,ioos:station:TABS:A:1,1995-08-12T05:00:00Z,29.5325,-93.8116,2.0,285.025147,6.326270623,-99999.0,'11133222,11111222,99999999' 
TABS,ioos:station:TABS:A:1,1995-08-12T05:30:00Z,29.5325,-93.8116,2.0,273.38897,7.613310712,-99999.0,'11133222,11111222,99999999' 
TABS,ioos:station:TABS:A:1,1995-08-12T06:00:00Z,29.5325,-93.8116,2.0,281.8737451,5.783744462,-99999.0,'11133222,11111222,99999999' 
TABS,ioos:station:TABS:A:1,1995-08-12T06:30:00Z,29.5325,-93.8116,2.0,282.2438783,9.148070835,-99999.0,'11133222,11111222,99999999' 
TABS,ioos:station:TABS:A:1,1995-08-12T07:00:00Z,29.5325,-93.8116,2.0,274.6408683,9.270388341,-99999.0,'11133222,11111222,99999999' 
TABS,ioos:station:TABS:A:1,1995-08-12T07:30:00Z,29.5325,-93.8116,2.0,270.0004209,12.66,-99999.0,'11111222,11111222,99999999' 
TABS,ioos:station:TABS:A:1,1995-08-12T08:00:00Z,29.5325,-93.8116,2.0,259.5936377,13.1767219,-99999.0,'11111222,11111222,99999999' 
TABS,ioos:station:TABS:A:1,1995-08-12T08:30:00Z,29.5325,-93.8116,2.0,256.5733859,17.31317417,-99999.0,'11111222,11111222,99999999' 
TABS,ioos:station:TABS:A:1,1995-08-12T09:00:00Z,29.5325,-93.8116,2.0,260.3583135,14.21071779,-99999.0,'11111222,11111222,99999999' 
TABS,ioos:station:TABS:A:1,1995-08-12T09:30:00Z,29.5325,-93.8116,2.0,248.6340077,13.91641118,-99999.0,'11111222,11111222,99999999' 
TABS,ioos:station:TABS:A:1,1995-08-12T10:00:00Z,29.5325,-93.8116,2.0,237.7090427,15.33093931,-99999.0,'11111222,11111222,99999999' 
TABS,ioos:station:TABS:A:1,1995-08-12T10:30:00Z,29.5325,-93.8116,2.0,239.5374002,17.63416003,-99999.0,'11111222,11111222,99999999' 
TABS,ioos:station:TABS:A:1,1995-08-12T11:00:00Z,29.5325,-93.8116,2.0,241.0064946,17.20633895,-99999.0,'11111222,11111222,99999999' 
TABS,ioos:station:TABS:A:1,1995-08-12T11:30:00Z,29.5325,-93.8116,2.0,226.8586273,16.13052386,-99999.0,'11111222,11111222,99999999' 
TABS,ioos:station:TABS:A:1,1995-08-12T12:00:00Z,29.5325,-93.8116,2.0,221.4289698,13.51075498,-99999.0,'11111222,11111222,99999999' 
TABS,ioos:station:TABS:A:1,1995-08-12T12:30:00Z,29.5325,-93.8116,2.0,228.4079326,15.93809273,-99999.0,'11111222,11111222,99999999' 
TABS,ioos:station:TABS:A:1,1995-08-12T13:00:00Z,29.5325,-93.8116,2.0,224.9996843,15.38664356,-99999.0,'11111222,11111222,99999999' 
TABS,ioos:station:TABS:A:1,1995-08-12T13:30:00Z,29.5325,-93.8116,2.0,229.0833405,14.79488087,-99999.0,'11111222,11111222,99999999' 
TABS,ioos:station:TABS:A:1,1995-08-12T14:00:00Z,29.5325,-93.8116,2.0,228.007154,16.03805786,-99999.0,'11111222,11111222,99999999' 
TABS,ioos:station:TABS:A:1,1995-08-12T14:30:00Z,29.5325,-93.8116,2.0,227.7562347,15.29120008,-99999.0,'11111222,11111222,99999999' 
TABS,ioos:station:TABS:A:1,1995-08-12T15:00:00Z,29.5325,-93.8116,2.0,241.2262859,12.07031483,-99999.0,'11111222,11111222,99999999' 
TABS,ioos:station:TABS:A:1,1995-08-12T15:30:00Z,29.5325,-93.8116,2.0,245.2357463,10.67131669,-99999.0,'11111222,11111222,99999999' 
TABS,ioos:station:TABS:A:1,1995-08-12T16:00:00Z,29.5325,-93.8116,2.0,241.3134986,10.87474138,-99999.0,'11111222,11111222,99999999' 
TABS,ioos:station:TABS:A:1,1995-08-12T16:30:00Z,29.5325,-93.8116,2.0,251.7685716,13.32908474,-99999.0,'11111222,11111222,99999999' 
TABS,ioos:station:TABS:A:1,1995-08-12T17:00:00Z,29.5325,-93.8116,2.0,256.6112373,12.86976301,-99999.0,'11111222,11111222,99999999' 
TABS,ioos:station:TABS:A:1,1995-08-12T17:30:00Z,29.5325,-93.8116,2.0,275.0157298,13.61211593,-99999.0,'11111222,11111222,99999999' 
TABS,ioos:station:TABS:A:1,1995-08-12T18:00:00Z,29.5325,-93.8116,2.0,280.5690198,13.79400232,-99999.0,'11111222,11111222,99999999' 
TABS,ioos:station:TABS:A:1,1995-08-12T18:30:00Z,29.5325,-93.8116,2.0,281.3314537,10.63733989,-99999.0,'11111222,11111222,99999999' 
TABS,ioos:station:TABS:A:1,1995-08-12T19:00:00Z,29.5325,-93.8116,2.0,272.378113,14.46245138,-99999.0,'11111222,11111222,99999999' 
TABS,ioos:station:TABS:A:1,1995-08-12T19:30:00Z,29.5325,-93.8116,2.0,281.0635957,20.9493198,-99999.0,'11111222,11111222,99999999' 
TABS,ioos:station:TABS:A:1,1995-08-12T20:00:00Z,29.5325,-93.8116,2.0,284.9756123,21.90390833,-99999.0,'11111222,11111222,99999999' 
TABS,ioos:station:TABS:A:1,1995-08-12T20:30:00Z,29.5325,-93.8116,2.0,285.7634088,20.28276362,-99999.0,'11111222,11111222,99999999' 
TABS,ioos:station:TABS:A:1,1995-08-12T21:00:00Z,29.5325,-93.8116,2.0,282.4578079,23.5033487,-99999.0,'11111222,11111222,99999999' 
TABS,ioos:station:TABS:A:1,1995-08-12T21:30:00Z,29.5325,-93.8116,2.0,284.2457142,20.60353853,-99999.0,'11111222,11111222,99999999' 
TABS,ioos:station:TABS:A:1,1995-08-12T22:00:00Z,29.5325,-93.8116,2.0,281.0221483,17.15645651,-99999.0,'11111222,11111222,99999999' 
TABS,ioos:station:TABS:A:1,1995-08-12T22:30:00Z,29.5325,-93.8116,2.0,275.5990151,15.272855,-99999.0,'11111222,11111222,99999999' 
TABS,ioos:station:TABS:A:1,1995-08-12T23:00:00Z,29.5325,-93.8116,2.0,260.8685976,12.22491309,-99999.0,'11111222,11111222,99999999' 
TABS,ioos:station:TABS:A:1,1995-08-12T23:30:00Z,29.5325,-93.8116,2.0,279.8556148,6.952596637,-99999.0,'11133222,11111222,99999999' 
TABS,ioos:station:TABS:A:1,1995-08-13T00:00:00Z,29.5325,-93.8116,2.0,257.3283757,6.108780566,-99999.0,'11133222,11111222,99999999' 
TABS,ioos:station:TABS:A:1,1995-08-13T00:30:00Z,29.5325,-93.8116,2.0,231.8115962,6.25965654,-99999.0,'11133222,11111222,99999999' 
TABS,ioos:station:TABS:A:1,1995-08-13T01:00:00Z,29.5325,-93.8116,2.0,219.6923699,9.097037979,-99999.0,'11133222,11111222,99999999' 
TABS,ioos:station:TABS:A:1,1995-08-13T01:30:00Z,29.5325,-93.8116,2.0,223.6160006,13.17724174,-99999.0,'11111222,11111222,99999999' 
TABS,ioos:station:TABS:A:1,1995-08-13T02:00:00Z,29.5325,-93.8116,2.0,220.0742873,12.27118984,-99999.0,'11111222,11111222,99999999' 
TABS,ioos:station:TABS:A:1,1995-08-13T02:30:00Z,29.5325,-93.8116,2.0,216.51494,10.01619189,-99999.0,'11111222,11111222,99999999' 
TABS,ioos:station:TABS:A:1,1995-08-13T03:00:00Z,29.5325,-93.8116,2.0,212.3493883,7.232496111,-99999.0,'11133222,11111222,99999999' 
TABS,ioos:station:TABS:A:1,1995-08-13T03:30:00Z,29.5325,-93.8116,2.0,220.8847848,5.912512156,-99999.0,'11133222,11111222,99999999' 
TABS,ioos:station:TABS:A:1,1995-08-13T04:00:00Z,29.5325,-93.8116,2.0,228.313102,5.38301031,-99999.0,'11133222,11111222,99999999' 
TABS,ioos:station:TABS:A:1,1995-08-13T04:30:00Z,29.5325,-93.8116,2.0,213.3421412,7.313856712,-99999.0,'11133222,11111222,99999999' 
TABS,ioos:station:TABS:A:1,1995-08-13T05:00:00Z,29.5325,-93.8116,2.0,202.2756353,6.278574679,-99999.0,'11133222,11111222,99999999' 
TABS,ioos:station:TABS:A:1,1995-08-13T05:30:00Z,29.5325,-93.8116,2.0,223.5207793,8.219318707,-99999.0,'11133222,11111222,99999999' 
TABS,ioos:station:TABS:A:1,1995-08-13T06:00:00Z,29.5325,-93.8116,2.0,228.1078657,11.60655418,-99999.0,'11111222,11111222,99999999' 
TABS,ioos:station:TABS:A:1,1995-08-13T06:30:00Z,29.5325,-93.8116,2.0,232.2561389,13.3795553,-99999.0,'11111222,11111222,99999999' 
TABS,ioos:station:TABS:A:1,1995-08-13T07:00:00Z,29.5325,-93.8116,2.0,232.26117,15.83181923,-99999.0,'11111222,11111222,99999999' 
TABS,ioos:station:TABS:A:1,1995-08-13T07:30:00Z,29.5325,-93.8116,2.0,241.480034,15.60341629,-99999.0,'11111222,11111222,99999999' 
TABS,ioos:station:TABS:A:1,1995-08-13T08:00:00Z,29.5325,-93.8116,2.0,236.0212403,16.53304872,-99999.0,'11111222,11111222,99999999' 
TABS,ioos:station:TABS:A:1,1995-08-13T08:30:00Z,29.5325,-93.8116,2.0,236.613221,15.70100952,-99999.0,'11111222,11111222,99999999' 
TABS,ioos:station:TABS:A:1,1995-08-13T09:00:00Z,29.5325,-93.8116,2.0,250.1847279,21.53503192,-99999.0,'11111222,11111222,99999999' 
TABS,ioos:station:TABS:A:1,1995-08-13T09:30:00Z,29.5325,-93.8116,2.0,234.7379128,22.44884184,-99999.0,'11111222,11111222,99999999' 
TABS,ioos:station:TABS:A:1,1995-08-13T10:00:00Z,29.5325,-93.8116,2.0,226.0678448,22.7586511,-99999.0,'11111222,11111222,99999999' 
TABS,ioos:station:TABS:A:1,1995-08-13T10:30:00Z,29.5325,-93.8116,2.0,223.664111,22.44966815,-99999.0,'11111222,11111222,99999999' 
TABS,ioos:station:TABS:A:1,1995-08-13T11:00:00Z,29.5325,-93.8116,2.0,214.4770088,20.79212591,-99999.0,'11111222,11111222,99999999' 
TABS,ioos:station:TABS:A:1,1995-08-13T11:30:00Z,29.5325,-93.8116,2.0,200.8794406,24.24194918,-99999.0,'11111222,11111222,99999999' 
TABS,ioos:station:TABS:A:1,1995-08-13T12:00:00Z,29.5325,-93.8116,2.0,200.2473461,22.39380718,-99999.0,'11111222,11111222,99999999' 
TABS,ioos:station:TABS:A:1,1995-08-13T12:30:00Z,29.5325,-93.8116,2.0,201.1138694,25.23409796,-99999.0,'11111222,11111222,99999999' 
TABS,ioos:station:TABS:A:1,1995-08-13T13:00:00Z,29.5325,-93.8116,2.0,199.8009534,27.71891953,-99999.0,'11111222,11111222,99999999' 
TABS,ioos:station:TABS:A:1,1995-08-13T13:30:00Z,29.5325,-93.8116,2.0,187.7986187,40.60557843,-99999.0,'11111222,11111222,99999999' 
TABS,ioos:station:TABS:A:1,1995-08-13T14:00:00Z,29.5325,-93.8116,2.0,189.6608125,41.71156195,-99999.0,'11111222,11111222,99999999' 
TABS,ioos:station:TABS:A:1,1995-08-13T14:30:00Z,29.5325,-93.8116,2.0,188.6040685,40.83964373,-99999.0,'11111222,11111222,99999999' 
TABS,ioos:station:TABS:A:1,1995-08-13T15:00:00Z,29.5325,-93.8116,2.0,184.5737001,37.36900989,-99999.0,'11111222,11111222,99999999' 
TABS,ioos:station:TABS:A:1,1995-08-13T15:30:00Z,29.5325,-93.8116,2.0,183.9638165,36.59755456,-99999.0,'11111222,11111222,99999999' 
TABS,ioos:station:TABS:A:1,1995-08-13T16:00:00Z,29.5325,-93.8116,2.0,188.3201941,37.03987176,-99999.0,'11111222,11111222,99999999' 
TABS,ioos:station:TABS:A:1,1995-08-13T16:30:00Z,29.5325,-93.8116,2.0,186.6042668,34.95194987,-99999.0,'11111222,11111222,99999999' 
TABS,ioos:station:TABS:A:1,1995-08-13T17:00:00Z,29.5325,-93.8116,2.0,194.3677403,31.83575977,-99999.0,'11111222,11111222,99999999' 
TABS,ioos:station:TABS:A:1,1995-08-13T17:30:00Z,29.5325,-93.8116,2.0,193.7973375,25.61926033,-99999.0,'11111222,11111222,99999999' 
TABS,ioos:station:TABS:A:1,1995-08-13T18:00:00Z,29.5325,-93.8116,2.0,209.5876503,25.35651593,-99999.0,'11111222,11111222,99999999' 
TABS,ioos:station:TABS:A:1,1995-08-13T18:30:00Z,29.5325,-93.8116,2.0,201.3090503,19.67514676,-99999.0,'11111222,11111222,99999999' 
TABS,ioos:station:TABS:A:1,1995-08-13T19:00:00Z,29.5325,-93.8116,2.0,199.0654317,20.97033381,-99999.0,'11111222,11111222,99999999' 
TABS,ioos:station:TABS:A:1,1995-08-13T19:30:00Z,29.5325,-93.8116,2.0,160.7183531,12.62835302,-99999.0,'11111222,11111222,99999999' 
TABS,ioos:station:TABS:A:1,1995-08-13T20:00:00Z,29.5325,-93.8116,2.0,148.5915945,16.57926717,-99999.0,'11111222,11111222,99999999' 
TABS,ioos:station:TABS:A:1,1995-08-13T20:30:00Z,29.5325,-93.8116,2.0,151.3893968,18.66964649,-99999.0,'11111222,11111222,99999999' 
TABS,ioos:station:TABS:A:1,1995-08-13T21:00:00Z,29.5325,-93.8116,2.0,151.763223,22.99656496,-99999.0,'11111222,11111222,99999999' 
TABS,ioos:station:TABS:A:1,1995-08-13T21:30:00Z,29.5325,-93.8116,2.0,146.5875957,25.16981724,-99999.0,'11111222,11111222,99999999' 
TABS,ioos:station:TABS:A:1,1995-08-13T22:00:00Z,29.5325,-93.8116,2.0,142.8999533,29.89024088,-99999.0,'11111222,11111222,99999999' 
TABS,ioos:station:TABS:A:1,1995-08-13T22:30:00Z,29.5325,-93.8116,2.0,143.667611,34.9555389,-99999.0,'11111222,11111222,99999999' 
TABS,ioos:station:TABS:A:1,1995-08-13T23:00:00Z,29.5325,-93.8116,2.0,151.9045366,39.85647375,-99999.0,'11111222,11111222,99999999' 
TABS,ioos:station:TABS:A:1,1995-08-13T23:30:00Z,29.5325,-93.8116,2.0,151.8995456,42.39765206,-99999.0,'11111222,11111222,99999999' 
TABS,ioos:station:TABS:A:1,1995-08-14T00:00:00Z,29.5325,-93.8116,2.0,155.5278603,45.67309164,-99999.0,'11111222,11111222,99999999' 
TABS,ioos:station:TABS:A:1,1995-08-14T00:30:00Z,29.5325,-93.8116,2.0,152.5060718,49.38781327,-99999.0,'11111222,11111222,99999999' 
TABS,ioos:station:TABS:A:1,1995-08-14T01:00:00Z,29.5325,-93.8116,2.0,162.9814781,51.42170164,-99999.0,'11111222,11111222,99999999' 
TABS,ioos:station:TABS:A:1,1995-08-14T01:30:00Z,29.5325,-93.8116,2.0,161.5076073,47.45,-99999.0,'11111222,11111222,99999999' 
TABS,ioos:station:TABS:A:1,1995-08-14T02:00:00Z,29.5325,-93.8116,2.0,165.2174234,47.30573432,-99999.0,'11111222,11111222,99999999' 
TABS,ioos:station:TABS:A:1,1995-08-14T02:30:00Z,29.5325,-93.8116,2.0,165.9210411,49.00191119,-99999.0,'11111222,11111222,99999999' 
TABS,ioos:station:TABS:A:1,1995-08-14T03:00:00Z,29.5325,-93.8116,2.0,168.5471282,48.80169054,-99999.0,'11111222,11111222,99999999' 
TABS,ioos:station:TABS:A:1,1995-08-14T03:30:00Z,29.5325,-93.8116,2.0,177.8698922,48.16327439,-99999.0,'11111222,11111222,99999999' 
TABS,ioos:station:TABS:A:1,1995-08-14T04:00:00Z,29.5325,-93.8116,2.0,175.8591854,47.50399246,-99999.0,'11111222,11111222,99999999' 
TABS,ioos:station:TABS:A:1,1995-08-14T04:30:00Z,29.5325,-93.8116,2.0,183.8395336,48.97994794,-99999.0,'11111222,11111222,99999999' 
TABS,ioos:station:TABS:A:1,1995-08-14T05:00:00Z,29.5325,-93.8116,2.0,186.8554048,42.47368362,-99999.0,'11111222,11111222,99999999' 
TABS,ioos:station:TABS:A:1,1995-08-14T05:30:00Z,29.5325,-93.8116,2.0,189.0557825,35.00635657,-99999.0,'11111222,11111222,99999999' 
TABS,ioos:station:TABS:A:1,1995-08-14T06:00:00Z,29.5325,-93.8116,2.0,186.6212048,31.04709326,-99999.0,'11111222,11111222,99999999' 
TABS,ioos:station:TABS:A:1,1995-08-14T06:30:00Z,29.5325,-93.8116,2.0,191.2060481,31.43942907,-99999.0,'11111222,11111222,99999999' 
TABS,ioos:station:TABS:A:1,1995-08-14T07:00:00Z,29.5325,-93.8116,2.0,193.8556902,35.45160786,-99999.0,'11111222,11111222,99999999' 
TABS,ioos:station:TABS:A:1,1995-08-14T07:30:00Z,29.5325,-93.8116,2.0,196.9469608,36.29620917,-99999.0,'11111222,11111222,99999999' 
TABS,ioos:station:TABS:A:1,1995-08-14T08:00:00Z,29.5325,-93.8116,2.0,204.7934573,36.6040353,-99999.0,'11111222,11111222,99999999' 
TABS,ioos:station:TABS:A:1,1995-08-14T08:30:00Z,29.5325,-93.8116,2.0,205.5161651,36.65529293,-99999.0,'11111222,11111222,99999999' 
TABS,ioos:station:TABS:A:1,1995-08-14T09:00:00Z,29.5325,-93.8116,2.0,206.205563,31.38606697,-99999.0,'11111222,11111222,99999999' 
TABS,ioos:station:TABS:A:1,1995-08-14T09:30:00Z,29.5325,-93.8116,2.0,201.9532241,31.48289853,-99999.0,'11111222,11111222,99999999' 
TABS,ioos:station:TABS:A:1,1995-08-14T10:00:00Z,29.5325,-93.8116,2.0,195.4065818,34.77985768,-99999.0,'11111222,11111222,99999999' 
TABS,ioos:station:TABS:A:1,1995-08-14T10:30:00Z,29.5325,-93.8116,2.0,201.0078874,37.82419464,-99999.0,'11111222,11111222,99999999' 
TABS,ioos:station:TABS:A:1,1995-08-14T11:00:00Z,29.5325,-93.8116,2.0,200.7449234,36.16474112,-99999.0,'11111222,11111222,99999999' 
TABS,ioos:station:TABS:A:1,1995-08-14T11:30:00Z,29.5325,-93.8116,2.0,202.538419,34.20234203,-99999.0,'11111222,11111222,99999999' 
TABS,ioos:station:TABS:A:1,1995-08-14T12:00:00Z,29.5325,-93.8116,2.0,199.2706619,32.51167483,-99999.0,'11111222,11111222,99999999' 
TABS,ioos:station:TABS:A:1,1995-08-14T12:30:00Z,29.5325,-93.8116,2.0,198.0197172,32.74624406,-99999.0,'11111222,11111222,99999999' 
TABS,ioos:station:TABS:A:1,1995-08-14T13:00:00Z,29.5325,-93.8116,2.0,191.6324845,36.20361308,-99999.0,'11111222,11111222,99999999' 
TABS,ioos:station:TABS:A:1,1995-08-14T13:30:00Z,29.5325,-93.8116,2.0,191.872582,39.12705713,-99999.0,'11111222,11111222,99999999' 
TABS,ioos:station:TABS:A:1,1995-08-14T14:00:00Z,29.5325,-93.8116,2.0,179.9997895,35.61,-99999.0,'11111222,11111222,99999999' 
TABS,ioos:station:TABS:A:1,1995-08-14T14:30:00Z,29.5325,-93.8116,2.0,172.2366449,38.64417809,-99999.0,'11111222,11111222,99999999' 
TABS,ioos:station:TABS:A:1,1995-08-14T15:00:00Z,29.5325,-93.8116,2.0,165.181159,39.60733518,-99999.0,'11111222,11111222,99999999' 
TABS,ioos:station:TABS:A:1,1995-08-14T15:30:00Z,29.5325,-93.8116,2.0,164.6539292,33.21422888,-99999.0,'11111222,11111222,99999999' 
TABS,ioos:station:TABS:A:1,1995-08-14T16:00:00Z,29.5325,-93.8116,2.0,168.6502782,34.04576919,-99999.0,'11111222,11111222,99999999' 
TABS,ioos:station:TABS:A:1,1995-08-14T16:30:00Z,29.5325,-93.8116,2.0,169.6478938,34.83705642,-99999.0,'11111222,11111222,99999999' 
TABS,ioos:station:TABS:A:1,1995-08-14T17:00:00Z,29.5325,-93.8116,2.0,168.5043371,35.12458398,-99999.0,'11111222,11111222,99999999' 
TABS,ioos:station:TABS:A:1,1995-08-14T17:30:00Z,29.5325,-93.8116,2.0,164.6080305,31.98727403,-99999.0,'11111222,11111222,99999999' 
TABS,ioos:station:TABS:A:1,1995-08-14T18:00:00Z,29.5325,-93.8116,2.0,153.8404578,29.05619555,-99999.0,'11111222,11111222,99999999' 
TABS,ioos:station:TABS:A:1,1995-08-14T18:30:00Z,29.5325,-93.8116,2.0,148.3436345,26.96154669,-99999.0,'11111222,11111222,99999999' 
TABS,ioos:station:TABS:A:1,1995-08-14T19:00:00Z,29.5325,-93.8116,2.0,147.8617092,27.4455388,-99999.0,'11111222,11111222,99999999' 
TABS,ioos:station:TABS:A:1,1995-08-14T19:30:00Z,29.5325,-93.8116,2.0,150.3850471,26.22597186,-99999.0,'11111222,11111222,99999999' 
TABS,ioos:station:TABS:A:1,1995-08-14T20:00:00Z,29.5325,-93.8116,2.0,154.6354317,25.39836412,-99999.0,'11111222,11111222,99999999' 
TABS,ioos:station:TABS:A:1,1995-08-14T20:30:00Z,29.5325,-93.8116,2.0,153.7653486,23.25549397,-99999.0,'11111222,11111222,99999999' 
TABS,ioos:station:TABS:A:1,1995-08-14T21:00:00Z,29.5325,-93.8116,2.0,159.4845935,24.6535535,-99999.0,'11111222,11111222,99999999' 
TABS,ioos:station:TABS:A:1,1995-08-14T21:30:00Z,29.5325,-93.8116,2.0,169.7067978,21.65855489,-99999.0,'11111222,11111222,99999999' 
TABS,ioos:station:TABS:A:1,1995-08-14T22:00:00Z,29.5325,-93.8116,2.0,177.6944464,18.64509051,-99999.0,'11111222,11111222,99999999' 
TABS,ioos:station:TABS:A:1,1995-08-14T22:30:00Z,29.5325,-93.8116,2.0,186.8179882,21.31071327,-99999.0,'11111222,11111222,99999999' 
TABS,ioos:station:TABS:A:1,1995-08-14T23:00:00Z,29.5325,-93.8116,2.0,189.6331574,23.12610862,-99999.0,'11111222,11111222,99999999' 
TABS,ioos:station:TABS:A:1,1995-08-14T23:30:00Z,29.5325,-93.8116,2.0,189.0411882,19.91747474,-99999.0,'11111222,11111222,99999999' 
TABS,ioos:station:TABS:A:1,1995-08-15T00:00:00Z,29.5325,-93.8116,2.0,186.2809852,20.38235757,-99999.0,'11111222,11111222,99999999' 
TABS,ioos:station:TABS:A:1,1995-08-15T00:30:00Z,29.5325,-93.8116,2.0,186.5223336,35.38906611,-99999.0,'11111222,11111222,99999999' 
TABS,ioos:station:TABS:A:1,1995-08-15T01:00:00Z,29.5325,-93.8116,2.0,189.7762217,35.98254716,-99999.0,'11111222,11111222,99999999' 
TABS,ioos:station:TABS:A:1,1995-08-15T01:30:00Z,29.5325,-93.8116,2.0,190.1232494,33.90790468,-99999.0,'11111222,11111222,99999999' 
TABS,ioos:station:TABS:A:1,1995-08-15T02:00:00Z,29.5325,-93.8116,2.0,197.5979918,32.04993916,-99999.0,'11111222,11111222,99999999' 
TABS,ioos:station:TABS:A:1,1995-08-15T02:30:00Z,29.5325,-93.8116,2.0,201.1896191,23.48808421,-99999.0,'11111222,11111222,99999999' 
TABS,ioos:station:TABS:A:1,1995-08-15T03:00:00Z,29.5325,-93.8116,2.0,200.4520146,20.03279561,-99999.0,'11111222,11111222,99999999' 
TABS,ioos:station:TABS:A:1,1995-08-15T03:30:00Z,29.5325,-93.8116,2.0,196.8650356,24.12774544,-99999.0,'11111222,11111222,99999999' 
TABS,ioos:station:TABS:A:1,1995-08-15T04:00:00Z,29.5325,-93.8116,2.0,189.7735888,27.21501056,-99999.0,'11111222,11111222,99999999' 
TABS,ioos:station:TABS:A:1,1995-08-15T04:30:00Z,29.5325,-93.8116,2.0,176.8027713,24.02739478,-99999.0,'11111222,11111222,99999999' 
TABS,ioos:station:TABS:A:1,1995-08-15T05:00:00Z,29.5325,-93.8116,2.0,178.7550293,20.71488837,-99999.0,'11111222,11111222,99999999' 
TABS,ioos:station:TABS:A:1,1995-08-15T05:30:00Z,29.5325,-93.8116,2.0,164.1757636,20.75660136,-99999.0,'11111222,11111222,99999999' 
TABS,ioos:station:TABS:A:1,1995-08-15T06:00:00Z,29.5325,-93.8116,2.0,142.7047539,19.67254178,-99999.0,'11111222,11111222,99999999' 
TABS,ioos:station:TABS:A:1,1995-08-15T06:30:00Z,29.5325,-93.8116,2.0,133.3041374,21.50546442,-99999.0,'11111222,11111222,99999999' 
TABS,ioos:station:TABS:A:1,1995-08-15T07:00:00Z,29.5325,-93.8116,2.0,116.4011316,23.45644901,-99999.0,'11111222,11111222,99999999' 
TABS,ioos:station:TABS:A:1,1995-08-15T07:30:00Z,29.5325,-93.8116,2.0,109.4346105,29.54333258,-99999.0,'11111222,11111222,99999999' 
TABS,ioos:station:TABS:A:1,1995-08-15T08:00:00Z,29.5325,-93.8116,2.0,115.7636406,28.45898452,-99999.0,'11111222,11111222,99999999' 
TABS,ioos:station:TABS:A:1,1995-08-15T08:30:00Z,29.5325,-93.8116,2.0,120.730851,32.07393022,-99999.0,'11111222,11111222,99999999' 
TABS,ioos:station:TABS:A:1,1995-08-15T09:00:00Z,29.5325,-93.8116,2.0,125.9171601,34.04270553,-99999.0,'11111222,11111222,99999999' 
TABS,ioos:station:TABS:A:1,1995-08-15T09:30:00Z,29.5325,-93.8116,2.0,128.8156679,33.27919019,-99999.0,'11111222,11111222,99999999' 
TABS,ioos:station:TABS:A:1,1995-08-15T10:00:00Z,29.5325,-93.8116,2.0,134.0909063,32.98361108,-99999.0,'11111222,11111222,99999999' 
TABS,ioos:station:TABS:A:1,1995-08-15T10:30:00Z,29.5325,-93.8116,2.0,134.2789306,33.71752067,-99999.0,'11111222,11111222,99999999' 
TABS,ioos:station:TABS:A:1,1995-08-15T11:00:00Z,29.5325,-93.8116,2.0,137.6486103,34.2747283,-99999.0,'11111222,11111222,99999999' 
TABS,ioos:station:TABS:A:1,1995-08-15T11:30:00Z,29.5325,-93.8116,2.0,138.04684,33.65636493,-99999.0,'11111222,11111222,99999999' 
TABS,ioos:station:TABS:A:1,1995-08-15T12:00:00Z,29.5325,-93.8116,2.0,144.3231186,34.48147619,-99999.0,'11111222,11111222,99999999' 
TABS,ioos:station:TABS:A:1,1995-08-15T12:30:00Z,29.5325,-93.8116,2.0,149.9842917,35.44332095,-99999.0,'11111222,11111222,99999999' 
TABS,ioos:station:TABS:A:1,1995-08-15T13:00:00Z,29.5325,-93.8116,2.0,149.875542,36.52282848,-99999.0,'11111222,11111222,99999999' 
TABS,ioos:station:TABS:A:1,1995-08-15T13:30:00Z,29.5325,-93.8116,2.0,161.2326993,39.81690721,-99999.0,'11111222,11111222,99999999' 
TABS,ioos:station:TABS:A:1,1995-08-15T14:00:00Z,29.5325,-93.8116,2.0,160.4781049,39.68107357,-99999.0,'11111222,11111222,99999999' 
TABS,ioos:station:TABS:A:1,1995-08-15T14:30:00Z,29.5325,-93.8116,2.0,158.9229789,43.9074595,-99999.0,'11111222,11111222,99999999' 
TABS,ioos:station:TABS:A:1,1995-08-15T15:00:00Z,29.5325,-93.8116,2.0,160.5114863,48.67884243,-99999.0,'11111222,11111222,99999999' 
TABS,ioos:station:TABS:A:1,1995-08-15T15:30:00Z,29.5325,-93.8116,2.0,166.9067487,44.05528913,-99999.0,'11111222,11111222,99999999' 
TABS,ioos:station:TABS:A:1,1995-08-15T16:00:00Z,29.5325,-93.8116,2.0,163.4771389,46.62528928,-99999.0,'11111222,11111222,99999999' 
TABS,ioos:station:TABS:A:1,1995-08-15T16:30:00Z,29.5325,-93.8116,2.0,166.0598686,43.29509557,-99999.0,'11111222,11111222,99999999' 
TABS,ioos:station:TABS:A:1,1995-08-15T17:00:00Z,29.5325,-93.8116,2.0,171.4789045,40.22399781,-99999.0,'11111222,11111222,99999999' 
TABS,ioos:station:TABS:A:1,1995-08-15T17:30:00Z,29.5325,-93.8116,2.0,168.8859275,35.53645171,-99999.0,'11111222,11111222,99999999' 
TABS,ioos:station:TABS:A:1,1995-08-15T18:00:00Z,29.5325,-93.8116,2.0,168.1541476,37.75400641,-99999.0,'11111222,11111222,99999999' 